Location: ?ejeti?ky
(50.4060°N, 14.9016°E)
Time: 21:35:04
(UTC+00:00)

STARLINK-1364 - Pass Details

Date: 01 October 2020
Orbit: 548 x 551 km, 53.0° (Epoch: 23 October)

Event Time Altitude Azimuth Distance (km) Brightness Sun altitude
Exits shadow 03:24:04 27° 287° (WNW) 1,067 4.6 -16.1°
Maximum altitude 03:26:07 59° 357° (N) 639 3.9 -15.8°
Drops below altitude 10° 03:30:14 10° 78° (ENE) 1,830 7.7 -15.2°
Sets 03:32:30 0° 82° (E) 2,725 9.1 -14.8°
